Location: Newark
(59.8814°N, 10.8258°E)
Time: 01:29:22
(UTC+00:00)

Envisat - Pass Details

Date: 28 January 2020
Orbit: 764 x 766 km, 98.1° (Epoch: 21 February)

Event Time Altitude Azimuth Distance (km) Brightness Sun altitude
Rises 19:01:54 0° 232° (SW) 3,231 6.8 -27.2°
Reaches altitude 10° 19:06:18 10° 268° (W) 2,312 6.4 -27.7°
Maximum altitude 19:07:36 11° 283° (WNW) 2,251 6.4 -27.9°
Drops below altitude 10° 19:08:55 10° 298° (WNW) 2,316 6.4 -28.0°
Sets 19:13:21 0° 335° (NNW) 3,249 6.8 -28.6°
